Weather History for Lambertville, MI

Change the Weather History Date:

Monday, December 10, 2012

  Actual Average (KTOL) Record (KTOL)
Temperature  
Mean Temperature 38 °F 31 °F  
Max Temperature 43 °F 38 °F 67 °F (1971)
Min Temperature 33 °F 25 °F -6 °F (1958)
Degree Days  
Heating Degree Days 27 34  
Month to date heating degree days 321  
Since 1 July heating degree days 1554  
Cooling Degree Days 0 0  
Month to date cooling degree days 0  
Year to date cooling degree days 793  
Moisture  
Dew Point 34 °F    
Average Humidity 80    
Maximum Humidity 93    
Minimum Humidity 69    
Precipitation  
Precipitation 0.00 in 0.09 in 0.89 in (1967)
Month to date precipitation 0.91  
Year to date precipitation 32.47  
Snow  
Snow 0.00 in 0.20 in - ()
Month to date snowfall 1.8  
Since 1 July snowfall 3.9  
Snow Depth -    
Sea Level Pressure  
Sea Level Pressure 29.70 in    
Wind  
Wind Speed 6 mph (West)    
Max Wind Speed 14 mph    
Max Gust Speed 20 mph    
Visibility 8 miles    
Events Rain    
T = Trace of Precipitation, MM = Missing Value Source: NWS Daily Summary

Daily Weather History Graph

Daily Weather History Graph

Search for Another Location

Airport:

Trip Planner

Search our weather history database for the weather conditions in past years. The results will help you decide how hot, cold, wet, or windy it might be!

Date:

Astronomy

Dec. 10, 2012 Rise Set
Actual Time 7:51 AM EST 5:04 PM EST
Civil Twilight 7:19 AM EST 5:35 PM EST
Nautical Twilight 6:44 AM EST 6:10 PM EST
Astronomical Twilight 6:11 AM EST 6:44 PM EST
Moon 4:31 AM EST (12/10) 2:53 PM EST (12/10)
Length of Visible Light 10h 15m
Length of Day
9h 12m
Waning Crescent, 10% of the Moon is Illuminated
Dec 10
Waning Crescent
Dec 13
New
Dec 20
First Quarter
Dec 28
Full
Jan 4
Last Quarter

Hourly Weather History & Observations

Time (EST) Temp. Windchill Dew Point Humidity Pressure Visibility Wind Dir Wind Speed Gust Speed Precip Events Conditions
12:14 AM 42.1 °F - 40.3 °F 93% 29.64 in 1.2 mi Calm Calm - N/A Rain Light Rain
12:35 AM 43.0 °F - 41.2 °F 93% 29.64 in 1.0 mi Calm Calm - N/A   Overcast
12:54 AM 43.7 °F 42.1 °F 41.9 °F 93% 29.64 in 1.2 mi West 3.5 mph - N/A   Overcast
1:15 AM 43.2 °F 40.5 °F 41.4 °F 93% 29.64 in 1.8 mi West 4.6 mph - N/A   Overcast
1:34 AM 43.0 °F 39.5 °F 41.2 °F 93% 29.64 in 2.5 mi West 5.8 mph - N/A   Overcast
1:54 AM 43.0 °F 38.2 °F 41.0 °F 93% 29.64 in 4.0 mi West 8.1 mph - N/A   Overcast
2:15 AM 42.8 °F 39.3 °F 41.0 °F 93% 29.63 in 4.0 mi West 5.8 mph - N/A   Overcast
2:34 AM 43.0 °F 38.2 °F 41.0 °F 93% 29.64 in 4.0 mi West 8.1 mph - N/A   Overcast
2:55 AM 42.8 °F 38.6 °F 41.0 °F 93% 29.65 in 5.0 mi West 6.9 mph - N/A   Overcast
3:15 AM 43.0 °F 38.2 °F 41.0 °F 93% 29.64 in 5.0 mi West 8.1 mph - N/A   Overcast
3:55 AM 43.2 °F 38.4 °F 41.0 °F 92% 29.64 in 5.0 mi West 8.1 mph - N/A   Overcast
4:14 AM 43.0 °F 37.7 °F 40.5 °F 91% 29.63 in 7.0 mi West 9.2 mph - N/A   Overcast
4:34 AM 43.2 °F 39.0 °F 39.7 °F 88% 29.63 in 7.0 mi West 6.9 mph - N/A   Overcast
4:55 AM 43.0 °F 39.5 °F 39.7 °F 88% 29.63 in 7.0 mi West 5.8 mph - N/A   Overcast
5:14 AM 43.0 °F 37.7 °F 39.7 °F 88% 29.62 in 5.0 mi West 9.2 mph - N/A   Overcast
5:34 AM 43.2 °F 38.4 °F 39.4 °F 86% 29.63 in 7.0 mi West 8.1 mph - N/A   Overcast
5:54 AM 42.8 °F 37.0 °F 38.3 °F 84% 29.63 in 7.0 mi WSW 10.4 mph 17.3 mph N/A   Overcast
6:14 AM 42.3 °F 35.1 °F 37.6 °F 83% 29.64 in 10.0 mi West 13.8 mph 19.6 mph N/A   Overcast
6:35 AM 42.1 °F 36.1 °F 37.8 °F 85% 29.64 in 7.0 mi West 10.4 mph 19.6 mph N/A   Overcast
6:54 AM 41.0 °F 34.3 °F 36.9 °F 85% 29.65 in 7.0 mi West 11.5 mph 19.6 mph N/A   Overcast
7:14 AM 40.6 °F 35.4 °F 36.7 °F 86% 29.65 in 10.0 mi West 8.1 mph - N/A   Overcast
7:35 AM 40.5 °F 35.1 °F 36.5 °F 86% 29.66 in 7.0 mi West 8.1 mph - N/A   Overcast
7:54 AM 40.1 °F 34.7 °F 36.0 °F 85% 29.66 in 7.0 mi West 8.1 mph 16.1 mph N/A   Overcast
8:14 AM 40.1 °F 32.7 °F 35.2 °F 83% 29.67 in 10.0 mi West 12.7 mph 16.1 mph N/A   Overcast
8:35 AM 39.7 °F 33.7 °F 34.7 °F 82% 29.68 in 10.0 mi WSW 9.2 mph - N/A   Overcast
8:54 AM 39.7 °F 34.3 °F 34.5 °F 82% 29.68 in 10.0 mi West 8.1 mph - N/A   Overcast
9:15 AM 39.7 °F 35.6 °F 34.3 °F 81% 29.68 in 10.0 mi WSW 5.8 mph - N/A   Overcast
9:34 AM 39.6 °F 34.7 °F 34.2 °F 81% 29.68 in 10.0 mi West 6.9 mph - N/A   Overcast
9:54 AM 39.6 °F 35.4 °F 34.5 °F 82% 29.68 in 10.0 mi WSW 5.8 mph - N/A   Overcast
10:15 AM 39.9 °F 35.8 °F 35.1 °F 83% 29.68 in 10.0 mi WSW 5.8 mph - N/A   Overcast
10:34 AM 40.1 °F 34.7 °F 35.1 °F 82% 29.68 in 10.0 mi WSW 8.1 mph - N/A   Mostly Cloudy
10:54 AM 40.1 °F 34.7 °F 34.9 °F 82% 29.68 in 10.0 mi West 8.1 mph - N/A   Mostly Cloudy
11:14 AM 40.5 °F 35.1 °F 34.9 °F 80% 29.69 in 10.0 mi West 8.1 mph - N/A   Overcast
11:34 AM 42.1 °F 36.1 °F 36.0 °F 79% 29.69 in 10.0 mi West 10.4 mph - N/A   Overcast
11:55 AM 41.0 °F 35.2 °F 33.8 °F 76% 29.68 in 10.0 mi West 9.2 mph 17.3 mph N/A   Overcast
12:14 PM 40.8 °F 34.1 °F 33.6 °F 76% 29.67 in 10.0 mi West 11.5 mph - N/A   Overcast
12:34 PM 40.6 °F 34.3 °F 33.8 °F 77% 29.67 in 10.0 mi West 10.4 mph 18.4 mph N/A   Overcast
12:55 PM 40.8 °F 34.1 °F 33.4 °F 75% 29.67 in 10.0 mi West 11.5 mph - N/A   Overcast
1:14 PM 40.8 °F 33.7 °F 33.1 °F 74% 29.66 in 10.0 mi West 12.7 mph 17.3 mph N/A   Overcast
1:34 PM 41.0 °F 34.7 °F 32.7 °F 72% 29.66 in 10.0 mi WNW 10.4 mph 16.1 mph N/A   Overcast
1:55 PM 41.0 °F 35.2 °F 32.0 °F 70% 29.67 in 10.0 mi WNW 9.2 mph 16.1 mph N/A   Overcast
2:14 PM 41.2 °F 35.0 °F 32.0 °F 70% 29.67 in 10.0 mi West 10.4 mph 18.4 mph N/A   Mostly Cloudy
2:34 PM 41.2 °F 35.0 °F 32.0 °F 70% 29.68 in 10.0 mi West 10.4 mph - N/A   Overcast
2:55 PM 40.6 °F 35.4 °F 32.0 °F 71% 29.68 in 10.0 mi West 8.1 mph - N/A   Overcast
3:14 PM 40.3 °F 34.9 °F 32.2 °F 73% 29.68 in 10.0 mi West 8.1 mph - N/A   Overcast
3:35 PM 40.1 °F 34.1 °F 32.0 °F 73% 29.69 in 10.0 mi West 9.2 mph - N/A   Overcast
3:54 PM 39.7 °F 33.7 °F 32.0 °F 74% 29.70 in 10.0 mi West 9.2 mph - N/A   Overcast
4:14 PM 39.4 °F 33.8 °F 32.0 °F 75% 29.70 in 10.0 mi West 8.1 mph - N/A   Overcast
4:34 PM 39.2 °F 34.2 °F 32.0 °F 75% 29.70 in 10.0 mi West 6.9 mph - N/A   Overcast
4:54 PM 39.2 °F 35.0 °F 32.0 °F 75% 29.71 in 10.0 mi West 5.8 mph - N/A   Overcast
5:15 PM 38.3 °F 32.5 °F 30.6 °F 74% 29.72 in 10.0 mi NNW 8.1 mph - N/A   Overcast
5:34 PM 37.4 °F 29.8 °F 30.6 °F 76% 29.73 in 10.0 mi North 11.5 mph - N/A   Overcast
5:55 PM 36.3 °F 29.5 °F 29.5 °F 76% 29.75 in 10.0 mi NNW 9.2 mph 16.1 mph N/A   Overcast
6:14 PM 35.1 °F 27.9 °F 28.0 °F 76% 29.76 in 10.0 mi NNW 9.2 mph - N/A   Mostly Cloudy
6:34 PM 34.7 °F 28.1 °F 27.7 °F 76% 29.77 in 10.0 mi NNW 8.1 mph - N/A   Scattered Clouds
6:55 PM 34.7 °F 29.6 °F 27.7 °F 76% 29.78 in 10.0 mi NNW 5.8 mph - N/A   Overcast
7:14 PM 34.2 °F 29.0 °F 27.5 °F 77% 29.78 in 10.0 mi North 5.8 mph - N/A   Mostly Cloudy
7:35 PM 34.3 °F 28.4 °F 27.3 °F 76% 29.79 in 10.0 mi North 6.9 mph - N/A   Overcast
7:55 PM 34.3 °F 30.2 °F 27.1 °F 75% 29.80 in 10.0 mi NNW 4.6 mph - N/A   Overcast
8:14 PM 34.3 °F 31.4 °F 26.4 °F 73% 29.80 in 10.0 mi North 3.5 mph - N/A   Overcast
8:35 PM 34.5 °F 28.6 °F 25.7 °F 70% 29.81 in 10.0 mi NNW 6.9 mph - N/A   Overcast
8:54 PM 34.3 °F 29.2 °F 25.5 °F 70% 29.81 in 10.0 mi NNW 5.8 mph - N/A   Overcast
9:14 PM 34.2 °F 29.0 °F 24.8 °F 69% 29.82 in 10.0 mi NNW 5.8 mph - N/A   Overcast
9:54 PM 33.8 °F - 26.2 °F 74% 29.83 in 10.0 mi Calm Calm - N/A   Overcast
10:14 PM 33.8 °F 29.6 °F 26.2 °F 74% 29.84 in 10.0 mi West 4.6 mph - N/A   Overcast
10:34 PM 33.8 °F - 26.6 °F 75% 29.84 in 10.0 mi Calm Calm - N/A   Overcast
10:54 PM 34.0 °F 31.0 °F 27.3 °F 77% 29.85 in 10.0 mi WSW 3.5 mph - N/A   Overcast
11:15 PM 33.3 °F 28.9 °F 27.3 °F 79% 29.86 in 10.0 mi WSW 4.6 mph - N/A   Overcast
11:34 PM 33.4 °F - 27.7 °F 79% 29.87 in 10.0 mi Calm Calm - N/A   Overcast
11:54 PM 33.8 °F 30.8 °F 28.4 °F 81% 29.87 in 10.0 mi West 3.5 mph - N/A   Overcast